[[{"header":{"parameterUnit":"m.s-1","parameterCategory":1,"la1":30.2991,"la2":30.254,"lo1":-89.0895,"lo2":-89.0444,"dy":0.0017,"dx":0.0017,"nx":28,"ny":28,"refTime":"2024-08-11T15:00:00:Z","depth":0,"parameterNumber":2,"parameterNumberName":"U-component_of_WINDS"},"data":[0,0,0,0,0,0,0,0,0,0,0,0,0,0,0,0,0,0,0,0,0,0,0,0,0,0,0,0,0,0,0,0,0,0,0,0,0,0,0,0,0,0,0,0,0,0,0,0,0,0,0,0,0,0,0,0,0,0,1.7903,1.7904,0,1.8027,1.8028,1.8029,1.8053,1.8052,1.8051,1.805,1.8177,1.8181,1.8185,0,0,0,0,0,0,0,0,0,0,0,0,0,1.7685,1.7689,1.7903,1.7904,1.7906,1.8026,1.8028,1.803,1.8053,1.8052,1.8051,1.805,1.8175,1.818,1.8185,0,0,0,0,0,0,0,0,0,0,0,0,0,1.7791,1.769,1.7902,1.7932,1.7936,1.8026,1.8028,1.803,1.8053,1.8052,1.805,1.8049,1.8174,1.818,1.8186,1.8255,0,0,1.8206,1.8209,0,0,0,0,0,0,0,0,1.7785,1.7799,1.7926,1.793,1.7935,1.8023,1.7998,1.8106,1.8054,1.8009,1.805,1.8048,1.8127,1.8137,1.8163,1.8261,1.8267,1.8206,1.821,1.8213,1.8215,0,0,0,0,0,0,0,1.7778,1.7794,1.7952,1.7928,1.7933,1.7939,1.7952,1.8018,1.8074,1.8013,1.8015,1.8029,1.8129,1.8157,1.8166,1.8269,1.8206,1.8212,1.8216,1.8218,1.8429,1.843,0,0,0,0,0,0,1.7765,1.7788,1.7948,1.7955,1.7855,1.7944,1.7959,1.7996,1.8074,1.8084,1.803,1.803,1.8147,1.8159,1.8171,1.8256,1.8213,1.8219,1.8223,1.8427,1.8429,1.8431,0,0,0,0,0,0,1.7761,1.7779,1.7943,1.7872,1.7893,1.7949,1.7991,1.7999,1.8028,1.8087,1.8097,1.8049,1.8146,1.8162,1.8234,1.8261,1.8222,1.8228,1.8425,1.8427,1.843,1.8427,0,0,0,0,0,0,1.7754,1.7777,1.7805,1.7873,1.7897,1.8004,1.7992,1.8003,1.8039,1.8039,1.8107,1.8117,1.8146,1.8224,1.824,1.8269,1.8233,1.8423,1.8426,1.8429,1.8425,1.8429,1.8433,0,0,0,0,0,1.7746,1.7799,1.7806,1.7825,1.7932,1.8005,1.8019,1.8052,1.8041,1.8068,1.8106,1.8115,1.8256,1.8231,1.825,1.8281,1.8421,1.8425,1.8429,1.8423,1.8428,1.8433,0,0,0,0,0,0,1.7732,1.7808,1.7817,1.7893,1.7943,1.8009,1.8045,1.8056,1.811,1.8108,1.8146,1.8161,1.8231,1.8263,1.8235,1.8351,1.8338,1.8345,1.8327,1.8333,1.8336,1.8326,1.8238,0,0,0,0,0,1.7738,1.7792,1.7855,1.7916,1.7941,1.7988,1.8022,1.8042,1.8095,1.8116,1.8159,1.821,1.8265,1.8301,1.8356,1.843,1.8445,1.8461,1.8465,1.8468,1.8473,1.8514,1.8521,1.8444,1.8443,1.8443,0,0,1.7751,1.7799,1.783,1.7915,1.7956,1.8009,1.8006,1.8063,1.8103,1.8125,1.8195,1.8229,1.8287,1.8361,1.8395,1.839,1.8498,1.8473,1.8474,1.8479,1.8519,1.8526,1.8533,1.8446,1.8446,1.8445,0,0,1.78,1.7843,1.7898,1.7939,1.8001,1.8032,1.8045,1.811,1.8133,1.8205,1.8221,1.827,1.8365,1.8406,1.8439,1.8504,1.8514,1.8521,1.8541,1.8581,1.8587,1.8592,1.8614,1.8622,1.8527,1.8527,1.8527,0,1.7808,1.789,1.7925,1.7981,1.8017,1.804,1.8095,1.8133,1.8209,1.8234,1.8227,1.8346,1.8388,1.847,1.8486,1.8513,1.8528,1.8513,1.8583,1.8589,1.8595,1.8616,1.8624,1.8528,1.8527,1.8527,1.8527,0,1.7895,1.7952,1.7989,1.8062,1.8103,1.8159,1.8201,1.8238,1.8255,1.8287,1.8359,1.841,1.8474,1.8496,1.8513,1.8581,1.8575,1.8575,1.8562,1.8602,1.8622,1.8631,1.8528,1.8528,1.8528,1.8528,0,0,1.7938,1.803,1.8043,1.8076,1.8146,1.819,1.8247,1.831,1.834,1.8393,1.844,1.852,1.8521,1.8558,1.8581,1.8616,1.8662,1.8612,1.8613,1.8618,1.8738,1.8736,1.8745,1.867,1.8671,1.8673,1.8732,0,1.7995,1.8097,1.813,1.8214,1.8267,1.8289,1.8338,1.8386,1.8417,1.8466,1.8501,1.8556,1.8553,1.8576,1.8611,1.8649,1.8687,1.8645,1.8713,1.8715,1.8696,1.8756,1.8754,1.8808,1.8741,1.8742,1.8743,0,1.8075,1.8128,1.8218,1.8281,1.8304,1.8347,1.8407,1.8454,1.8509,1.8529,1.8571,1.8591,1.865,1.8635,1.8716,1.8687,1.8717,1.874,1.8743,1.8749,1.873,1.8762,1.8826,1.8834,1.8756,1.8755,1.8754,0,1.8095,1.819,1.8255,1.8283,1.8358,1.8388,1.8421,1.8474,1.851,1.8563,1.8586,1.8645,1.8677,1.8722,1.8757,1.8743,1.8835,1.8823,1.8853,1.8852,1.887,1.8868,1.8938,1.8892,1.8892,1.8891,1.8891,0,1.8154,1.8208,1.8265,1.8305,1.8366,1.8403,1.8462,1.8496,1.8543,1.8589,1.8613,1.8656,1.87,1.8749,1.8777,1.884,1.8854,1.8872,1.8878,1.8869,1.8866,1.8888,1.8884,1.8894,1.8893,1.8893,1.8892,0,1.8186,1.8227,1.83,1.8366,1.8383,1.8425,1.8481,1.852,1.8553,1.8611,1.8627,1.8678,1.8737,1.8777,1.8852,1.8871,1.8938,1.8945,1.8919,1.8922,1.8949,1.8945,1.9034,1.9047,1.8994,1.8994,1.8994,0,1.822,1.8262,1.8332,1.8365,1.8398,1.8451,1.8488,1.8526,1.8563,1.8629,1.866,1.872,1.877,1.8863,1.8906,1.8964,1.8971,1.8998,1.898,1.8969,1.897,1.8966,1.897,1.9,1.9001,1.9001,1.9002,0,1.8276,1.8294,1.8346,1.8405,1.8448,1.8497,1.8545,1.8571,1.8618,1.8658,1.8718,1.8757,1.8834,1.8893,1.8955,1.8988,1.9002,1.9007,1.9017,1.9007,1.899,1.8998,1.8925,1.9005,1.9004,1.9004,1.9004,1.9004,1.8309,1.8346,1.8402,1.8459,1.8499,1.8544,1.8584,1.8622,1.8673,1.8738,1.8758,1.8821,1.8874,1.8958,1.8993,1.9042,1.9039,1.9053,1.9057,1.9059,1.9058,1.8983,1.9053,1.9053,1.9053,1.9053,1.9053,0,1.8364,1.8401,1.8453,1.852,1.8565,1.8575,1.863,1.8666,1.8721,1.8769,1.8818,1.8887,1.8945,1.8993,1.9052,1.9082,1.909,1.9096,1.9093,1.9101,1.9058,1.9043,1.9089,1.9089,1.9089,1.9089,1.9089,1.9089,1.8398,1.8462,1.8486,1.8571,1.8607,1.8669,1.8698,1.874,1.8779,1.8854,1.8902,1.8934,1.8982,1.9045,1.9098,1.9111,1.9131,1.9135,1.9149,1.9108,1.9104,1.91,1.9086,1.914,1.914,1.9187,1.9188,1.9188]},{"header":{"parameterUnit":"m.s-1","parameterCategory":1,"la1":30.2991,"la2":30.254,"lo1":-89.0895,"lo2":-89.0444,"dy":0.0017,"dx":0.0017,"nx":28,"ny":28,"refTime":"2024-08-11T15:00:00:Z","depth":0,"parameterNumber":3,"parameterNumberName":"V-component_of_WINDS"},"data":[0,0,0,0,0,0,0,0,0,0,0,0,0,0,0,0,0,0,0,0,0,0,0,0,0,0,0,0,0,0,0,0,0,0,0,0,0,0,0,0,0,0,0,0,0,0,0,0,0,0,0,0,0,0,0,0,0,0,3.532,3.5319,0,3.5277,3.5277,3.5276,3.522,3.5219,3.5218,3.5217,3.5173,3.5173,3.5173,0,0,0,0,0,0,0,0,0,0,0,0,0,3.5352,3.5351,3.532,3.5319,3.5319,3.5277,3.5277,3.5276,3.522,3.5219,3.5218,3.5217,3.5173,3.5173,3.5173,0,0,0,0,0,0,0,0,0,0,0,0,0,3.5326,3.5351,3.532,3.5286,3.5282,3.5277,3.5277,3.5276,3.522,3.5219,3.5218,3.5216,3.5173,3.5173,3.5173,3.5197,0,0,3.5171,3.5171,0,0,0,0,0,0,0,0,3.5328,3.5325,3.5291,3.5288,3.5284,3.5252,3.5272,3.5249,3.5221,3.5244,3.5217,3.5216,3.5201,3.5198,3.5193,3.5195,3.5193,3.5171,3.5171,3.5171,3.517,0,0,0,0,0,0,0,3.533,3.5327,3.5303,3.5291,3.5286,3.5272,3.5267,3.5267,3.5231,3.5242,3.5238,3.5233,3.5198,3.5194,3.5191,3.5193,3.5171,3.5171,3.517,3.517,3.5211,3.5212,0,0,0,0,0,0,3.5337,3.5329,3.5304,3.5301,3.5303,3.5273,3.5267,3.5264,3.523,3.5224,3.5235,3.5231,3.5195,3.5192,3.519,3.5215,3.5171,3.517,3.517,3.521,3.5211,3.5213,0,0,0,0,0,0,3.5338,3.5335,3.5306,3.5314,3.5309,3.5274,3.5271,3.5264,3.5259,3.5225,3.5218,3.5236,3.5194,3.519,3.5195,3.5212,3.517,3.5169,3.5208,3.521,3.5212,3.5266,0,0,0,0,0,0,3.5339,3.5336,3.5345,3.5315,3.5309,3.5313,3.5272,3.5264,3.5258,3.5253,3.5225,3.5219,3.5192,3.5196,3.5195,3.5211,3.5169,3.5206,3.5209,3.5212,3.5263,3.527,3.5276,0,0,0,0,0,3.534,3.5362,3.5346,3.5343,3.532,3.5314,3.531,3.528,3.526,3.5268,3.5247,3.522,3.5211,3.5197,3.5195,3.5212,3.5205,3.5208,3.5211,3.526,3.5269,3.5276,0,0,0,0,0,0,3.5395,3.5357,3.5339,3.5352,3.5336,3.5304,3.5314,3.5291,3.528,3.5276,3.5238,3.5233,3.5242,3.5227,3.5213,3.5233,3.5204,3.5207,3.5242,3.525,3.5256,3.5259,3.5169,0,0,0,0,0,3.5409,3.5408,3.5375,3.5389,3.5382,3.535,3.5346,3.5324,3.5307,3.53,3.5278,3.5262,3.5256,3.5252,3.5244,3.5261,3.5253,3.5271,3.5278,3.5283,3.5286,3.5292,3.5299,3.5223,3.5223,3.5223,0,0,3.5437,3.5416,3.5418,3.54,3.5385,3.5384,3.5345,3.5345,3.5344,3.53,3.5303,3.5287,3.5266,3.5276,3.528,3.5265,3.5305,3.5287,3.5292,3.5291,3.5295,3.5303,3.5309,3.5225,3.5225,3.5224,0,0,3.5487,3.5472,3.5482,3.5468,3.5447,3.5425,3.5427,3.5399,3.5386,3.5389,3.5355,3.5353,3.5343,3.5329,3.5321,3.5366,3.534,3.5365,3.5399,3.5405,3.5411,3.5416,3.543,3.5436,3.5368,3.5368,3.5368,0,3.5525,3.5522,3.549,3.5492,3.5484,3.5445,3.5454,3.5442,3.542,3.5415,3.5399,3.5384,3.5368,3.5374,3.5385,3.538,3.538,3.5367,3.5413,3.5417,3.5422,3.5435,3.5441,3.5371,3.537,3.537,3.537,0,3.5568,3.5566,3.5577,3.5555,3.5549,3.5555,3.5524,3.5521,3.55,3.548,3.5482,3.5461,3.5448,3.5448,3.5427,3.5451,3.5442,3.542,3.539,3.5432,3.5444,3.5449,3.5375,3.5374,3.5373,3.5372,0,0,3.565,3.5611,3.5616,3.5605,3.5579,3.5577,3.5581,3.5568,3.5565,3.5552,3.5553,3.5545,3.5524,3.5515,3.5492,3.5498,3.5533,3.5475,3.5474,3.5485,3.5555,3.5571,3.5577,3.5516,3.5517,3.5518,3.5556,0,3.5694,3.5698,3.5669,3.5681,3.5678,3.5641,3.5644,3.5628,3.561,3.5604,3.5584,3.5578,3.5552,3.5546,3.555,3.5528,3.5546,3.5525,3.5516,3.5516,3.552,3.5584,3.56,3.5638,3.5561,3.5562,3.5562,0,3.5745,3.5733,3.5745,3.5717,3.5715,3.5718,3.5704,3.57,3.568,3.5666,3.5656,3.563,3.5631,3.5604,3.5604,3.559,3.5585,3.5573,3.5574,3.557,3.5541,3.558,3.5649,3.5654,3.557,3.5569,3.5568,0,3.5802,3.5789,3.5794,3.5786,3.5755,3.5758,3.5745,3.5724,3.5718,3.5705,3.57,3.5688,3.5681,3.5672,3.5643,3.5626,3.5646,3.5616,3.5633,3.5633,3.5637,3.5637,3.5704,3.5637,3.5637,3.5637,3.5637,0,3.5852,3.586,3.5819,3.5822,3.5829,3.5797,3.5805,3.5788,3.577,3.5768,3.5736,3.5735,3.5697,3.5692,3.5669,3.5672,3.5669,3.5657,3.5651,3.5659,3.566,3.5654,3.565,3.5638,3.5638,3.5638,3.5637,0,3.5916,3.5889,3.5891,3.5861,3.5854,3.5861,3.5835,3.5836,3.5815,3.5814,3.5811,3.5779,3.5771,3.5742,3.5726,3.5711,3.572,3.5709,3.5727,3.5722,3.574,3.5738,3.5804,3.581,3.574,3.5741,3.5742,0,3.5949,3.5954,3.5925,3.5922,3.591,3.5906,3.5899,3.5867,3.5861,3.584,3.5843,3.5832,3.5822,3.581,3.5785,3.5773,3.576,3.5784,3.5758,3.5766,3.5758,3.5758,3.5758,3.5789,3.579,3.5791,3.5792,0,3.6011,3.5997,3.5989,3.5976,3.597,3.5958,3.5945,3.5944,3.5908,3.5903,3.5895,3.5887,3.5871,3.586,3.5844,3.5829,3.5804,3.58,3.5803,3.5811,3.582,3.5814,3.574,3.5799,3.5798,3.5797,3.5797,3.5797,3.6059,3.6061,3.6041,3.6033,3.602,3.6008,3.6007,3.5987,3.5979,3.5964,3.5946,3.5939,3.5919,3.5894,3.5882,3.5875,3.5861,3.5866,3.5867,3.5868,3.5872,3.5823,3.5872,3.5872,3.5872,3.5872,3.5871,0,3.6117,3.6102,3.6095,3.6078,3.6071,3.6049,3.6033,3.6029,3.6024,3.6007,3.5998,3.5987,3.5977,3.5951,3.5937,3.5937,3.5925,3.5935,3.5934,3.593,3.5885,3.5884,3.5945,3.5945,3.5944,3.5944,3.5944,3.5944,3.6146,3.6149,3.6133,3.6129,3.6113,3.6107,3.61,3.6088,3.6075,3.6065,3.6056,3.604,3.6019,3.6004,3.5992,3.5985,3.5981,3.5994,3.5983,3.5941,3.5934,3.5927,3.5925,3.5994,3.5994,3.6028,3.6028,3.6028]}]]